DLH3AK LIEO-EDDM

Flight info

Callsign DLH3AK
Flight time 1h 12m
Altitude 34000
Route BATOX DCT DEDOM DCT ELB DCT BETMU DCT ADOSA DCT GUNGO DCT SOTOV T101 BETOS BETOS1A
Aircraft A321/M-SDE2E3FGIJ1LORWXYZ/HB1

Departure

Time 2026-05-04 12:05
Airport Olbia Costa Smeralda Airport (LIEO)

Arrival

Time 2026-05-04 13:18
Airport Munich Airport (EDDM)
Time Latitude Longitude Altitude Speed Heading
2026-05-04 11:10 40.90197 9.51578 51 ft 0 kts 325°
2026-05-04 11:56 40.90196 9.51578 50 ft 1 kts 325°
2026-05-04 11:56 40.90184 9.51589 50 ft 2 kts 325°
2026-05-04 11:57 40.90176 9.51597 50 ft 1 kts 325°
2026-05-04 11:57 40.90166 9.51610 50 ft 2 kts 292°
2026-05-04 11:57 40.90163 9.51630 50 ft 2 kts 262°
2026-05-04 11:57 40.90167 9.51644 50 ft 0 kts 238°
2026-05-04 11:58 40.90171 9.51652 50 ft 1 kts 234°
2026-05-04 12:00 40.90168 9.51647 50 ft 5 kts 234°
2026-05-04 12:01 40.90116 9.51550 50 ft 13 kts 235°
2026-05-04 12:01 40.90071 9.51483 50 ft 7 kts 184°
2026-05-04 12:02 40.89685 9.51023 51 ft 16 kts 235°
2026-05-04 12:03 40.89616 9.50896 51 ft 17 kts 235°
2026-05-04 12:03 40.89549 9.50768 51 ft 17 kts 235°
2026-05-04 12:03 40.89479 9.50638 51 ft 17 kts 236°
2026-05-04 12:03 40.89413 9.50509 51 ft 16 kts 236°
2026-05-04 12:04 40.89346 9.50455 51 ft 11 kts 188°
2026-05-04 12:04 40.89279 9.50485 51 ft 10 kts 110°
2026-05-04 12:04 40.89265 9.50585 51 ft 9 kts 101°
2026-05-04 12:04 40.89277 9.50644 51 ft 0 kts 55°
2026-05-04 12:05 40.89294 9.50676 51 ft 23 kts 55°
2026-05-04 12:05 40.89577 9.51206 51 ft 114 kts 55°
2026-05-04 12:05 40.90179 9.52334 200 ft 173 kts 57°
2026-05-04 12:05 40.90875 9.53640 1067 ft 178 kts 58°
2026-05-04 12:06 40.91562 9.54922 2046 ft 174 kts 59°
2026-05-04 12:06 40.92261 9.56267 2489 ft 184 kts 59°
2026-05-04 12:06 40.93019 9.57744 2833 ft 201 kts 59°
2026-05-04 12:06 40.93835 9.59317 3170 ft 217 kts 59°
2026-05-04 12:07 40.94732 9.61018 3556 ft 232 kts 58°
2026-05-04 12:07 40.95694 9.62837 3911 ft 251 kts 57°
2026-05-04 12:07 40.96713 9.64753 4619 ft 255 kts 57°
2026-05-04 12:07 40.97732 9.66667 5333 ft 258 kts 56°
2026-05-04 12:08 40.98746 9.68615 6018 ft 261 kts 58°
2026-05-04 12:08 40.99755 9.70684 6495 ft 275 kts 58°
2026-05-04 12:08 41.00804 9.72866 6974 ft 289 kts 58°
2026-05-04 12:08 41.01892 9.75129 7628 ft 294 kts 57°
2026-05-04 12:09 41.03006 9.77450 8346 ft 298 kts 57°
2026-05-04 12:09 41.04131 9.79791 9033 ft 302 kts 57°
2026-05-04 12:09 41.05265 9.82152 9651 ft 307 kts 56°
2026-05-04 12:09 41.06422 9.84557 10299 ft 311 kts 56°
2026-05-04 12:10 41.07598 9.87006 10723 ft 323 kts 56°
2026-05-04 12:10 41.08847 9.89605 11020 ft 339 kts 56°
2026-05-04 12:10 41.10144 9.92309 11280 ft 355 kts 56°
2026-05-04 12:10 41.11504 9.95125 11588 ft 369 kts 56°
2026-05-04 12:11 41.12895 9.98010 12124 ft 375 kts 56°
2026-05-04 12:11 41.14317 10.00975 12767 ft 378 kts 56°
2026-05-04 12:11 41.15727 10.03928 13374 ft 380 kts 56°
2026-05-04 12:11 41.17146 10.06840 13945 ft 383 kts 52°
2026-05-04 12:12 41.19096 10.09273 14444 ft 381 kts 27°
2026-05-04 12:12 41.21617 10.10401 15037 ft 375 kts
2026-05-04 12:12 41.24240 10.10767 15603 ft 377 kts
2026-05-04 12:12 41.26865 10.11044 16104 ft 381 kts
2026-05-04 12:13 41.29507 10.11376 16621 ft 384 kts
2026-05-04 12:14 41.48517 10.14789 20086 ft 403 kts
2026-05-04 12:15 41.51303 10.15330 20549 ft 405 kts
2026-05-04 12:15 41.54072 10.15868 20989 ft 408 kts
2026-05-04 12:15 41.56896 10.16420 21428 ft 410 kts
2026-05-04 12:15 41.59722 10.16970 21848 ft 413 kts
2026-05-04 12:16 41.62551 10.17522 22259 ft 415 kts
2026-05-04 12:16 41.65413 10.18082 22678 ft 417 kts
2026-05-04 12:16 41.68314 10.18650 23082 ft 419 kts
2026-05-04 12:16 41.71174 10.19210 23460 ft 421 kts
2026-05-04 12:17 41.74073 10.19780 23831 ft 424 kts
2026-05-04 12:17 41.77008 10.20357 24202 ft 426 kts
2026-05-04 12:17 41.79933 10.20932 24565 ft 428 kts
2026-05-04 12:17 41.82889 10.21514 24925 ft 430 kts
2026-05-04 12:18 41.85862 10.22100 25270 ft 432 kts
2026-05-04 12:18 41.88853 10.22689 25607 ft 434 kts
2026-05-04 12:18 41.91820 10.23277 25943 ft 436 kts
2026-05-04 12:18 41.94848 10.23875 26285 ft 438 kts
2026-05-04 12:19 41.97850 10.24465 26597 ft 440 kts
2026-05-04 12:19 42.00881 10.25065 26883 ft 442 kts
2026-05-04 12:19 42.03901 10.25664 27176 ft 445 kts
2026-05-04 12:19 42.07000 10.26277 27464 ft 447 kts
2026-05-04 12:20 42.10059 10.26885 27785 ft 448 kts
2026-05-04 12:20 42.13147 10.27496 28089 ft 449 kts
2026-05-04 12:20 42.16229 10.28108 28368 ft 451 kts
2026-05-04 12:20 42.19340 10.28724 28638 ft 453 kts
2026-05-04 12:21 42.22474 10.29349 28941 ft 454 kts
2026-05-04 12:21 42.25605 10.29978 29312 ft 453 kts
2026-05-04 12:21 42.28727 10.30605 29690 ft 452 kts
2026-05-04 12:21 42.31793 10.31218 30069 ft 451 kts
2026-05-04 12:22 42.34881 10.31837 30456 ft 449 kts
2026-05-04 12:22 42.37965 10.32454 30785 ft 449 kts
2026-05-04 12:22 42.41042 10.33072 31135 ft 448 kts
2026-05-04 12:22 42.44155 10.33698 31468 ft 447 kts
2026-05-04 12:23 42.47195 10.34309 31778 ft 446 kts
2026-05-04 12:23 42.50290 10.34933 32105 ft 446 kts
2026-05-04 12:23 42.53347 10.35550 32403 ft 445 kts
2026-05-04 12:23 42.56380 10.36162 32619 ft 447 kts
2026-05-04 12:24 42.59459 10.36783 32835 ft 448 kts
2026-05-04 12:24 42.62561 10.37413 33083 ft 448 kts
2026-05-04 12:24 42.65633 10.38040 33304 ft 449 kts
2026-05-04 12:24 42.68719 10.38668 33522 ft 450 kts
2026-05-04 12:25 42.71813 10.39295 33727 ft 451 kts
2026-05-04 12:25 42.74882 10.39921 33933 ft 452 kts
2026-05-04 12:25 42.77999 10.40570 34111 ft 453 kts
2026-05-04 12:25 42.81126 10.41229 34122 ft 453 kts
2026-05-04 12:26 42.87364 10.42554 34129 ft 454 kts
2026-05-04 12:26 42.93567 10.43882 34137 ft 454 kts
2026-05-04 12:27 42.99807 10.45218 34134 ft 453 kts
2026-05-04 12:27 43.06041 10.46555 34132 ft 454 kts
2026-05-04 12:28 43.12279 10.47897 34134 ft 454 kts
2026-05-04 12:28 43.18531 10.49241 34137 ft 454 kts
2026-05-04 12:29 43.24752 10.50584 34142 ft 455 kts
2026-05-04 12:29 43.30973 10.51929 34140 ft 454 kts
2026-05-04 12:30 43.37225 10.53285 34148 ft 454 kts
2026-05-04 12:30 43.43492 10.54648 34147 ft 455 kts
2026-05-04 12:31 43.49716 10.56003 34156 ft 455 kts
2026-05-04 12:31 43.55969 10.57367 34159 ft 455 kts
2026-05-04 12:32 43.65368 10.59425 34164 ft 455 kts
2026-05-04 12:33 43.71616 10.60797 34165 ft 455 kts
2026-05-04 12:33 43.77880 10.62173 34168 ft 455 kts
2026-05-04 12:34 43.84157 10.63555 34174 ft 455 kts
2026-05-04 12:34 43.90453 10.64947 34170 ft 455 kts
2026-05-04 12:35 43.96750 10.66365 34175 ft 456 kts
2026-05-04 12:35 44.03063 10.67790 34173 ft 456 kts
2026-05-04 12:36 44.09378 10.69202 34178 ft 456 kts
2026-05-04 12:36 44.15704 10.70609 34174 ft 457 kts
2026-05-04 12:37 44.22024 10.72018 34172 ft 457 kts
2026-05-04 12:37 44.28314 10.73423 34169 ft 457 kts
2026-05-04 12:38 44.34582 10.74830 34171 ft 458 kts
2026-05-04 12:38 44.40921 10.76256 34154 ft 458 kts
2026-05-04 12:39 44.47226 10.77677 34154 ft 458 kts
2026-05-04 12:39 44.53556 10.79110 34138 ft 459 kts
2026-05-04 12:40 44.59837 10.80534 34140 ft 459 kts
2026-05-04 12:40 44.66193 10.81978 34128 ft 459 kts
2026-05-04 12:41 44.72493 10.83319 34123 ft 459 kts
2026-05-04 12:41 44.78831 10.84610 34119 ft 459 kts
2026-05-04 12:42 44.85139 10.85906 34111 ft 459 kts
2026-05-04 12:42 44.91436 10.87215 34109 ft 459 kts
2026-05-04 12:43 44.97792 10.88540 34105 ft 459 kts
2026-05-04 12:43 45.04114 10.89861 34109 ft 459 kts
2026-05-04 12:44 45.10430 10.91186 34100 ft 459 kts
2026-05-04 12:44 45.16698 10.92498 34109 ft 459 kts
2026-05-04 12:45 45.23058 10.93835 34109 ft 459 kts
2026-05-04 12:45 45.29371 10.95166 34110 ft 459 kts
2026-05-04 12:46 45.35703 10.96507 34112 ft 459 kts
2026-05-04 12:46 45.42036 10.97850 34117 ft 459 kts
2026-05-04 12:47 45.48342 10.99194 34118 ft 459 kts
2026-05-04 12:47 45.54691 11.00551 34128 ft 459 kts
2026-05-04 12:48 45.60977 11.01895 34125 ft 459 kts
2026-05-04 12:48 45.67358 11.02783 34135 ft 458 kts
2026-05-04 12:49 45.73757 11.03108 34138 ft 458 kts 360°
2026-05-04 12:49 45.80103 11.03396 34143 ft 458 kts
2026-05-04 12:50 45.86510 11.03702 34147 ft 458 kts 360°
2026-05-04 12:50 45.92883 11.04014 34154 ft 458 kts
2026-05-04 12:51 45.99267 11.04330 34150 ft 458 kts
2026-05-04 12:51 46.05642 11.04646 34154 ft 458 kts 360°
2026-05-04 12:52 46.12018 11.04965 34155 ft 458 kts 360°
2026-05-04 12:52 46.18410 11.05285 34158 ft 458 kts 360°
2026-05-04 12:53 46.24760 11.05605 34165 ft 458 kts 360°
2026-05-04 12:53 46.31113 11.05928 34167 ft 458 kts 360°
2026-05-04 12:54 46.37477 11.06250 34178 ft 458 kts
2026-05-04 12:54 46.43849 11.07061 34180 ft 460 kts
2026-05-04 12:55 46.50154 11.08692 34028 ft 462 kts
2026-05-04 12:55 46.53330 11.09583 33748 ft 459 kts
2026-05-04 12:55 46.56457 11.10462 33471 ft 457 kts
2026-05-04 12:55 46.59535 11.11324 33197 ft 454 kts
2026-05-04 12:56 46.62667 11.12197 32919 ft 452 kts
2026-05-04 12:56 46.65770 11.13060 32582 ft 453 kts
2026-05-04 12:56 46.68837 11.13913 32116 ft 453 kts
2026-05-04 12:56 46.71929 11.14772 31530 ft 454 kts
2026-05-04 12:57 46.75049 11.15639 30874 ft 455 kts
2026-05-04 12:57 46.78164 11.16509 30191 ft 455 kts
2026-05-04 12:57 46.81271 11.17378 29475 ft 455 kts
2026-05-04 12:57 46.84347 11.18239 28748 ft 455 kts
2026-05-04 12:58 46.87443 11.19107 28089 ft 453 kts
2026-05-04 12:58 46.90552 11.19977 27632 ft 447 kts
2026-05-04 12:58 46.93565 11.20691 27167 ft 440 kts
2026-05-04 12:58 46.96605 11.21163 26684 ft 434 kts
2026-05-04 12:59 46.99575 11.21421 26208 ft 429 kts
2026-05-04 12:59 47.02531 11.21616 25735 ft 425 kts
2026-05-04 12:59 47.05500 11.21802 25247 ft 421 kts
2026-05-04 12:59 47.08404 11.21986 24766 ft 417 kts
2026-05-04 13:00 47.11291 11.22174 24259 ft 413 kts
2026-05-04 13:00 47.14110 11.22362 23776 ft 409 kts
2026-05-04 13:00 47.16957 11.22552 23275 ft 406 kts
2026-05-04 13:00 47.19769 11.22741 22808 ft 403 kts
2026-05-04 13:01 47.22549 11.22931 22330 ft 400 kts
2026-05-04 13:01 47.25300 11.23121 21828 ft 398 kts
2026-05-04 13:01 47.28080 11.23310 21340 ft 396 kts
2026-05-04 13:01 47.30822 11.23496 20857 ft 395 kts
2026-05-04 13:02 47.33569 11.23681 20370 ft 393 kts
2026-05-04 13:02 47.36303 11.23865 19881 ft 392 kts
2026-05-04 13:02 47.39024 11.24048 19416 ft 390 kts
2026-05-04 13:02 47.41720 11.24234 18957 ft 389 kts
2026-05-04 13:03 47.44417 11.24420 18473 ft 388 kts
2026-05-04 13:03 47.47130 11.24609 17976 ft 388 kts
2026-05-04 13:03 47.49810 11.24795 17501 ft 387 kts
2026-05-04 13:03 47.52521 11.24981 17026 ft 386 kts
2026-05-04 13:04 47.55174 11.25121 16546 ft 385 kts 359°
2026-05-04 13:04 47.57847 11.25136 16086 ft 383 kts 358°
2026-05-04 13:04 47.60531 11.25148 15573 ft 383 kts
2026-05-04 13:04 47.63192 11.25554 15028 ft 384 kts
2026-05-04 13:05 47.65820 11.26152 14509 ft 384 kts
2026-05-04 13:05 47.68438 11.26770 14024 ft 382 kts
2026-05-04 13:05 47.71064 11.27372 13521 ft 381 kts
2026-05-04 13:05 47.73634 11.27940 13049 ft 379 kts
2026-05-04 13:06 47.76190 11.28491 12596 ft 376 kts
2026-05-04 13:06 47.78749 11.29036 12156 ft 374 kts
2026-05-04 13:06 47.81309 11.29578 11682 ft 373 kts
2026-05-04 13:06 47.83858 11.30116 11305 ft 368 kts
2026-05-04 13:07 47.86364 11.30644 10795 ft 355 kts
2026-05-04 13:07 47.87934 11.30975 10490 ft 345 kts
2026-05-04 13:07 47.90925 11.31608 10312 ft 312 kts
2026-05-04 13:07 47.93051 11.32060 10232 ft 305 kts
2026-05-04 13:08 47.95145 11.32506 10138 ft 304 kts
2026-05-04 13:08 47.97246 11.32954 10037 ft 304 kts
2026-05-04 13:08 47.99329 11.33396 9742 ft 302 kts
2026-05-04 13:08 48.01384 11.33831 9443 ft 300 kts
2026-05-04 13:09 48.03443 11.34267 9134 ft 299 kts
2026-05-04 13:09 48.05492 11.34716 8833 ft 296 kts 10°
2026-05-04 13:09 48.07478 11.35379 8529 ft 294 kts 16°
2026-05-04 13:09 48.09438 11.36316 8232 ft 291 kts 20°
2026-05-04 13:10 48.11327 11.37303 7965 ft 287 kts 20°
2026-05-04 13:10 48.13204 11.38292 7707 ft 283 kts 20°
2026-05-04 13:10 48.15035 11.39256 7345 ft 278 kts 20°
2026-05-04 13:10 48.16848 11.40210 6960 ft 271 kts 20°
2026-05-04 13:11 48.18602 11.41129 6655 ft 263 kts 20°
2026-05-04 13:11 48.20287 11.42013 6377 ft 255 kts 20°
2026-05-04 13:11 48.21938 11.42880 6042 ft 248 kts 20°
2026-05-04 13:11 48.23552 11.43729 5695 ft 240 kts 20°
2026-05-04 13:12 48.25074 11.44530 5357 ft 233 kts 20°
2026-05-04 13:12 48.26576 11.45319 5032 ft 226 kts 20°
2026-05-04 13:12 48.28063 11.46100 4785 ft 225 kts 20°
2026-05-04 13:12 48.29528 11.46870 4517 ft 223 kts 20°
2026-05-04 13:13 48.31006 11.47648 4247 ft 222 kts 20°
2026-05-04 13:13 48.32298 11.48811 4042 ft 213 kts 51°
2026-05-04 13:13 48.32858 11.50679 4076 ft 190 kts 85°
2026-05-04 13:13 48.32755 11.52635 4189 ft 189 kts 96°
2026-05-04 13:14 48.32644 11.54527 4060 ft 176 kts 90°
2026-05-04 13:14 48.32664 11.56313 3852 ft 168 kts 84°
2026-05-04 13:14 48.32777 11.58046 3637 ft 165 kts 82°
2026-05-04 13:14 48.32915 11.59764 3423 ft 164 kts 81°
2026-05-04 13:15 48.33048 11.61468 3218 ft 164 kts 82°
2026-05-04 13:15 48.33176 11.63165 3008 ft 164 kts 82°
2026-05-04 13:15 48.33297 11.64812 2825 ft 153 kts 82°
2026-05-04 13:15 48.33412 11.66376 2607 ft 148 kts 83°
2026-05-04 13:16 48.33526 11.67907 2425 ft 148 kts 83°
2026-05-04 13:16 48.33642 11.69454 2234 ft 148 kts 83°
2026-05-04 13:16 48.33757 11.70987 2041 ft 148 kts 82°
2026-05-04 13:16 48.33876 11.72526 1852 ft 149 kts 81°
2026-05-04 13:17 48.33992 11.74070 1659 ft 150 kts 83°
2026-05-04 13:17 48.34105 11.75604 1492 ft 146 kts 82°
2026-05-04 13:17 48.34206 11.76922 1488 ft 103 kts 84°
2026-05-04 13:17 48.34272 11.77760 1485 ft 67 kts 83°
2026-05-04 13:18 48.34322 11.78389 1483 ft 56 kts 84°
2026-05-04 13:18 48.34360 11.78904 1481 ft 40 kts 81°
2026-05-04 13:18 48.34467 11.79229 1480 ft 29 kts 54°
2026-05-04 13:18 48.34555 11.79406 1479 ft 19 kts 53°
2026-05-04 13:19 48.34590 11.79475 1479 ft 4 kts 53°
2026-05-04 13:19 48.34613 11.79521 1478 ft 12 kts 54°
2026-05-04 13:19 48.34683 11.79654 1478 ft 11 kts 53°
2026-05-04 13:19 48.34733 11.79713 1477 ft 8 kts
2026-05-04 13:20 48.34791 11.79705 1477 ft 8 kts 352°
2026-05-04 13:20 48.34842 11.79694 1477 ft 8 kts 352°
2026-05-04 13:20 48.34916 11.79682 1477 ft 16 kts 354°
2026-05-04 13:20 48.35043 11.79662 1477 ft 18 kts 353°
2026-05-04 13:21 48.35164 11.79640 1477 ft 17 kts 353°
2026-05-04 13:21 48.35276 11.79621 1476 ft 16 kts 354°
2026-05-04 13:21 48.35393 11.79602 1476 ft 14 kts 353°
2026-05-04 13:21 48.35494 11.79582 1475 ft 14 kts 353°
2026-05-04 13:22 48.35592 11.79566 1475 ft 14 kts 354°
2026-05-04 13:22 48.35643 11.79572 1474 ft 4 kts 54°
2026-05-04 13:22 48.35651 11.79637 1474 ft 7 kts 83°
2026-05-04 13:22 48.35656 11.79705 1473 ft 2 kts 83°